South Bend, IN

12:09 AM EST on December 17, 2017 (GMT -0500)
South Bend Regional

Weather History for KSBN - December, 2010

Change the Weather History Date:

Wednesday, December 22, 2010

  Actual Average Record
Temperature  
Mean Temperature 30 °F 27 °F  
Max Temperature 33 °F 33 °F 57 °F (1957)
Min Temperature 27 °F 21 °F -13 °F (1983)
Degree Days  
Heating Degree Days 35 38  
Month to date heating degree days 930 771  
Since 1 July heating degree days 2088 2040  
Cooling Degree Days 0 0  
Month to date cooling degree days 0 0  
Year to date cooling degree days 1022 773  
Moisture  
Dew Point 26 °F    
Average Humidity 83    
Maximum Humidity 100    
Minimum Humidity 66    
Precipitation  
Precipitation 0.02 in 0.08 in 1.00 in (1926)
Month to date precipitation 1.88  
Year to date precipitation 37.27  
Snow  
Snow T in 0.70 in 4.80 in (1998)
Month to date snowfall 23.5 11.6  
Since 1 July snowfall 24.8 16.8  
Snow Depth 2.00 in    
Sea Level Pressure  
Sea Level Pressure 30.14 in    
Wind  
Wind Speed 7 mph (WNW)    
Max Wind Speed 17 mph    
Max Gust Speed 21 mph    
Visibility 5 miles    
Events Fog , Rain , Snow    
T = Trace of Precipitation, MM = Missing Value Source: NWS Daily Summary

Daily Weather History Graph

Daily Weather History Graph

Search for Another Location

Airport or City:

Trip Planner

Search our weather history database for the weather conditions in past years. The results will help you decide how hot, cold, wet, or windy it might be!

Date:

Astronomy

Dec. 22, 2010 Rise Set
Actual Time 8:09 AM EST 5:18 PM EST
Civil Twilight 7:37 AM EST 5:49 PM EST
Nautical Twilight 7:02 AM EST 6:25 PM EST
Astronomical Twilight 6:28 AM EST 6:58 PM EST
Moon 7:00 PM EST (12/22) 9:12 AM EST (12/22)
Length of Visible Light 10h 12m
Length of Day
9h 08m
Full, 98% of the Moon is Illuminated
Dec 22
Full
Dec 27
Last Quarter
Jan 4
New
Jan 12
First Quarter
Jan 19
Full

Hourly Weather History & Observations

Time (EST) Temp. Windchill Dew Point Humidity Pressure Visibility Wind Dir Wind Speed Gust Speed Precip Events Conditions
12:47 AM 28.4 °F 21.2 °F 26.6 °F 93% 30.00 in 1.8 mi SE 6.9 mph - N/A   Overcast
12:54 AM 28.9 °F 22.8 °F 27.0 °F 92% 30.03 in 1.8 mi SE 5.8 mph - N/A   Overcast
1:06 AM 28.4 °F 22.2 °F 26.6 °F 93% 29.99 in 1.0 mi SE 5.8 mph - 0.00 in   Light Freezing Drizzle
1:29 AM 28.4 °F 22.2 °F 26.6 °F 93% 30.00 in 1.0 mi SE 5.8 mph - 0.00 in   Light Freezing Drizzle
1:54 AM 28.0 °F 21.7 °F 28.0 °F 100% 30.02 in 0.8 mi SE 5.8 mph - 0.00 in   Light Freezing Drizzle
2:08 AM 28.4 °F 23.3 °F 28.4 °F 100% 29.99 in 0.5 mi SE 4.6 mph - 0.00 in Fog Light Freezing Fog
2:54 AM 28.9 °F 23.9 °F 28.0 °F 96% 30.02 in 0.5 mi ESE 4.6 mph - 0.00 in Fog Light Freezing Fog
3:54 AM 28.9 °F 25.2 °F 28.0 °F 96% 30.02 in 0.5 mi SE 3.5 mph - N/A Fog Light Freezing Fog
4:49 AM 28.4 °F 24.6 °F 28.4 °F 100% 29.98 in 0.5 mi SE 3.5 mph - 0.00 in Fog Light Freezing Drizzle
4:54 AM 28.9 °F - 28.9 °F 100% 30.01 in 0.5 mi Calm Calm - 0.00 in Fog Light Freezing Drizzle
5:02 AM 28.4 °F - 28.4 °F 100% 29.98 in 0.5 mi Calm Calm - 0.00 in Fog , Rain Light Freezing Rain
5:18 AM 30.2 °F 23.4 °F 28.4 °F 93% 29.99 in 1.0 mi WSW 6.9 mph - 0.00 in Rain Light Freezing Rain
5:28 AM 30.2 °F 22.6 °F 28.4 °F 93% 29.99 in 2.0 mi West 8.1 mph - 0.00 in Rain Light Freezing Rain
5:39 AM 30.2 °F 22.6 °F 28.4 °F 93% 29.99 in 2.5 mi West 8.1 mph - 0.00 in Rain Light Freezing Rain
5:54 AM 30.0 °F 19.1 °F 28.0 °F 92% 30.02 in 2.5 mi West 15.0 mph - 0.01 in Rain Light Freezing Rain
6:19 AM 28.4 °F 17.5 °F 26.6 °F 93% 30.01 in 2.5 mi West 13.8 mph - 0.00 in   Light Freezing Drizzle
6:54 AM 27.0 °F 15.2 °F 25.0 °F 92% 30.06 in 2.5 mi WNW 15.0 mph - 0.00 in   Light Freezing Drizzle
7:38 AM 28.4 °F 19.7 °F 26.6 °F 93% 30.03 in 2.5 mi West 9.2 mph - 0.00 in   Light Freezing Drizzle
7:52 AM 28.4 °F 19.1 °F 26.6 °F 93% 30.03 in 2.0 mi West 10.4 mph - 0.00 in Snow Light Freezing Drizzle
7:54 AM 28.0 °F 18.6 °F 27.0 °F 96% 30.06 in 2.0 mi West 10.4 mph - 0.00 in Snow Light Freezing Drizzle
8:17 AM 28.4 °F 19.7 °F 26.6 °F 93% 30.04 in 2.0 mi WSW 9.2 mph - 0.00 in Snow Light Freezing Drizzle
8:54 AM 28.0 °F 21.7 °F 27.0 °F 96% 30.10 in 2.0 mi SSW 5.8 mph - 0.00 in Snow Light Freezing Drizzle
9:11 AM 28.4 °F 22.2 °F 26.6 °F 93% 30.08 in 2.0 mi WSW 5.8 mph - 0.00 in Snow Light Snow
9:54 AM 28.0 °F - 27.0 °F 96% 30.14 in 2.0 mi Calm Calm - 0.01 in Snow Light Snow
10:54 AM 28.9 °F 21.1 °F 27.0 °F 92% 30.19 in 3.0 mi NNE 8.1 mph - 0.00 in Snow Light Snow
11:43 AM 30.2 °F 21.3 °F 24.8 °F 80% 30.18 in 6.0 mi NNE 10.4 mph - 0.00 in   Haze
11:54 AM 28.9 °F 20.4 °F 25.0 °F 85% 30.21 in 7.0 mi NNE 9.2 mph - 0.00 in   Mostly Cloudy
12:54 PM 30.9 °F 21.7 °F 24.1 °F 76% 30.23 in 10.0 mi NNE 11.5 mph - N/A   Overcast
1:54 PM 30.9 °F 22.2 °F 24.1 °F 76% 30.25 in 10.0 mi North 10.4 mph - N/A   Scattered Clouds
2:54 PM 32.0 °F 23.0 °F 24.1 °F 73% 30.26 in 10.0 mi NNW 11.5 mph - N/A   Mostly Cloudy
3:19 PM 32.0 °F 24.2 °F 24.8 °F 75% 30.24 in 10.0 mi North 9.2 mph - N/A   Scattered Clouds
3:54 PM 30.9 °F 23.5 °F 24.1 °F 76% 30.29 in 10.0 mi NNW 8.1 mph - N/A   Scattered Clouds
4:54 PM 31.1 °F 25.4 °F 24.8 °F 77% 30.32 in 10.0 mi NNW 5.8 mph - N/A   Clear
5:54 PM 30.2 °F 24.3 °F 20.5 °F 67% 30.35 in 10.0 mi North 5.8 mph - N/A   Clear
6:54 PM 27.0 °F - 21.0 °F 78% 30.38 in 10.0 mi Calm Calm - N/A   Clear
7:54 PM 27.0 °F - 21.0 °F 78% 30.38 in 10.0 mi Calm Calm - N/A   Clear
8:54 PM 31.3 °F 26.6 °F 23.9 °F 74% 30.39 in 10.0 mi WNW 4.6 mph - N/A   Mostly Cloudy
9:54 PM 31.3 °F 26.6 °F 24.3 °F 75% 30.40 in 10.0 mi WNW 4.6 mph - N/A   Overcast
10:54 PM 32.7 °F 28.3 °F 23.9 °F 70% 30.42 in 10.0 mi West 4.6 mph - N/A   Overcast
11:19 PM 32.0 °F - 24.8 °F 75% 30.39 in 10.0 mi Calm Calm - N/A   Overcast
11:54 PM 32.7 °F 25.7 °F 25.0 °F 73% 30.42 in 10.0 mi WNW 8.1 mph - N/A   Overcast